Location: Treviso
(45.6669°N, 12.2430°E)
Time: 16:57:02
(UTC+02:00)

ISS - Visible Passes

Search period start: 19 September 2018 00:00
Search period end: 29 September 2018 00:00
Orbit: 402 x 408 km, 51.6° (Epoch: 20 September)

Date Brightness Start Highest point End Pass type
(mag) Time Alt. Az. Time Alt. Az. Time Alt. Az.
21 Sep -1.3 21:17:02 10° SW 21:17:41 15° SW 21:17:41 15° SW visible
22 Sep -2.9 20:25:26 10° SSW 20:28:20 29° SE 20:28:33 29° SE visible
23 Sep -2.0 19:34:17 10° S 19:36:31 17° SE 19:38:45 10° E visible
23 Sep -3.0 21:09:22 10° WSW 21:11:53 49° WSW 21:11:53 49° WSW visible
24 Sep -3.8 20:17:24 10° SW 20:20:40 63° SSE 20:22:19 26° ENE visible
24 Sep -0.7 21:54:15 10° W 21:55:01 15° WNW 21:55:01 15° WNW visible
25 Sep -3.0 21:01:59 10° W 21:05:10 45° NNW 21:05:16 45° NNW visible
26 Sep -3.5 20:09:46 10° WSW 20:13:04 67° NNW 20:15:25 17° NE visible
26 Sep -0.8 21:47:01 10° WNW 21:48:06 17° NW 21:48:06 17° NW visible
27 Sep -2.4 20:54:42 10° WNW 20:57:43 32° NNW 20:58:08 31° N visible
28 Sep -2.7 20:02:23 10° W 20:05:31 40° NNW 20:08:06 14° NE visible
28 Sep -0.9 21:39:38 10° WNW 21:40:46 17° NW 21:40:46 17° NW visible
